Theta_e
314 314 315 318 320 321 320 321 321 323 323 323 323 324 330 326 324 322 323 323 323 320 321 321 321 325 334 332 331 328 325 324 318 315 323 327 327 327 327 330 334 333 333
310 310 311 315 317 316 316 317 319 319 316 320 321 322 322 327 325 324 323 325 322 322 318 317 318 331 331 329 327 323 320 321 320 316 317 319 317 318 319 319 324 334 335
310 309 309 309 311 315 316 316 317 316 316 315 317 318 322 321 324 322 320 321 320 322 318 320 325 328 328 327 324 320 319 318 316 312 311 313 313 312 314 317 321 326 332
308 307 306 307 309 310 314 316 316 317 316 315 315 317 321 321 321 323 321 318 319 325 323 327 327 328 328 325 321 319 317 313 312 310 307 308 309 311 314 311 312 317 321
307 307 306 308 309 309 309 313 315 315 316 316 315 316 318 320 322 316 317 320 323 319 322 325 326 324 322 321 320 316 315 310 308 306 304 304 304 307 308 310 309 313 314
306 306 308 307 307 307 307 309 313 314 314 314 312 314 316 319 307 307 312 316 319 321 320 320 321 321 321 317 316 315 312 310 307 306 304 304 305 309 309 309 310 310 309
305 306 307 306 305 305 306 306 306 310 313 312 310 311 312 313 309 305 308 316 316 317 318 316 318 318 315 314 310 310 309 308 308 308 306 307 308 310 311 309 310 311 311
304 304 305 304 303 303 303 303 302 304 308 311 310 309 310 313 307 305 307 314 315 316 316 317 316 315 315 314 311 309 309 309 307 310 309 310 312 313 313 313 311 309 310
303 303 304 304 303 301 300 300 302 303 303 306 310 309 309 310 305 301 305 314 314 316 318 315 313 317 310 306 315 312 311 312 311 307 306 304 303 302 306 304 304 303 305
301 302 302 302 301 300 299 299 300 302 302 303 305 310 309 310 303 300 304 314 313 315 316 315 309 312 303 302 316 315 313 313 315 311 309 304 302 306 302 305 306 304 305
303 303 302 300 299 299 300 299 299 300 300 301 302 302 306 310 310 301 300 311 312 314 313 312 316 305 304 303 300 316 315 313 311 312 312 310 309 309 310 312 310 310 308
300 300 300 301 301 302 300 298 297 298 298 298 300 300 302 305 304 303 299 299 306 311 315 317 314 301 304 303 305 306 302 308 313 310 307 305 305 306 307 309 310 314 317
295 295 296 298 299 301 299 297 297 298 297 297 297 298 299 301 304 302 299 298 297 302 313 312 307 301 299 301 300 301 301 312 310 307 305 305 305 307 308 308 310 312 321
293 293 294 296 296 298 299 298 297 297 295 295 296 297 298 300 301 304 306 304 301 301 303 307 306 307 306 307 306 302 308 311 312 308 305 306 307 307 307 307 307 310 315
292 293 293 294 294 295 297 296 296 298 297 296 296 296 296 296 299 300 301 301 295 295 296 304 307 309 309 308 309 308 307 309 308 307 306 306 307 307 307 307 308 311 312
290 292 293 294 294 294 294 295 295 294 294 293 293 295 299 296 294 294 294 293 292 293 296 298 303 307 309 309 308 310 307 308 309 308 306 306 306 307 308 307 310 312 312
288 289 290 292 292 293 293 293 292 294 294 293 291 292 291 294 293 293 293 293 292 295 296 294 296 305 307 308 309 309 308 309 309 309 309 308 309 309 305 307 310 313 315
289 289 288 289 290 291 291 291 292 291 290 292 293 293 292 291 291 291 291 292 294 295 297 296 297 300 307 308 308 308 308 310 310 310 310 309 310 310 308 308 312 313 315
287 287 288 289 290 290 291 290 290 290 290 291 292 292 292 291 291 291 291 294 295 295 297 297 297 300 305 307 308 309 309 309 309 310 309 310 310 309 309 312 314 301 305
287 287 287 288 288 288 289 289 289 288 289 289 289 289 291 290 291 292 293 294 295 295 296 297 299 299 303 307 307 307 310 307 309 309 308 309 309 312 312 314 315 315 315
288 288 287 287 288 289 289 289 289 289 288 289 290 291 289 291 292 292 293 293 294 296 296 297 299 300 303 304 307 308 305 308 309 307 306 307 310 311 315 316 316 318 320
292 291 290 290 291 291 292 292 292 291 291 291 291 292 287 291 292 293 294 295 296 297 298 298 300 301 302 306 306 306 309 308 309 309 309 309 311 313 314 316 318 318 318
297 295 296 296 297 294 296 297 298 298 297 296 295 294 291 292 293 294 296 297 297 298 299 299 300 301 304 308 310 307 308 308 307 309 309 311 313 315 316 317 318 317 318
294 294 294 294 294 294 293 293 294 292 295 298 297 296 294 294 294 295 297 298 298 299 300 300 302 303 305 306 309 310 308 307 308 308 310 311 312 312 317 318 318 318 316
291 291 291 290 290 290 290 290 290 291 293 295 298 297 296 296 297 298 298 299 299 300 301 300 300 303 303 303 304 308 302 292 303 298 311 315 317 318 318 317 317 317 315
287 288 288 287 287 287 287 287 288 288 289 291 293 295 298 298 299 299 299 299 300 299 298 298 300 302 304 305 305 299 294 291 299 290 306 314 317 317 318 319 318 316 313
Wind_Speed
4 3 3 4 4 3 4 5 7 7 7 7 6 8 7 7 10 9 11 9 9 7 7 4 14 21 9 4 4 3 4 4 5 3 3 5 2 2 5 5 6 5 4
1 2 2 3 3 3 5 6 6 7 7 8 6 4 6 9 8 10 12 12 14 15 11 11 3 16 13 6 3 6 5 4 4 6 2 2 2 2 3 5 6 5 6
2 2 3 4 3 5 6 6 6 7 7 9 8 6 6 6 6 9 9 11 11 12 13 13 16 16 12 3 1 4 5 3 4 4 3 2 4 1 3 2 3 4 2
3 4 4 4 5 5 7 7 7 8 8 8 6 7 6 5 7 2 9 9 8 14 17 16 15 14 13 12 9 8 6 4 4 3 2 2 1 3 2 2 5 2 3
5 5 6 6 6 7 7 7 9 10 11 9 7 6 6 5 4 9 9 8 15 8 8 13 15 14 15 13 8 6 7 4 3 4 1 2 2 2 3 2 2 4 4
5 5 6 5 6 7 8 8 9 11 11 8 7 7 7 4 1 2 8 11 14 7 7 6 8 9 11 13 12 11 10 8 4 4 4 4 4 5 3 1 1 3 4
6 6 5 5 5 6 6 7 7 9 10 9 7 8 9 7 7 3 6 8 14 12 6 6 7 6 9 7 11 14 11 11 10 7 5 6 7 7 3 1 3 4 4
8 7 7 7 7 7 7 8 10 9 9 12 8 8 8 7 9 8 8 4 7 13 6 2 8 9 8 9 8 8 8 8 8 6 7 8 7 4 4 3 3 4 4
7 7 7 6 6 5 6 8 11 11 9 8 9 8 8 10 9 9 6 3 8 13 7 2 5 6 9 11 8 8 7 6 8 12 12 13 8 6 5 1 4 1 4
7 8 7 7 7 8 8 10 11 11 13 11 9 8 11 11 10 11 11 5 12 7 5 6 10 6 4 10 8 8 8 8 7 4 2 2 6 6 6 6 3 4 2
9 9 9 7 7 8 10 9 10 12 14 14 13 8 8 7 8 12 14 9 9 4 5 5 5 12 12 18 15 7 12 7 8 6 4 3 2 3 4 4 6 5 4
12 14 15 15 13 13 16 9 9 11 13 12 12 9 7 7 8 8 9 10 7 5 5 6 6 15 15 28 17 21 11 8 5 5 4 3 3 3 4 5 6 5 7
14 15 15 16 17 12 11 11 12 13 11 11 11 11 10 5 4 9 13 10 11 5 7 9 13 17 21 23 22 16 5 6 5 4 5 5 4 5 4 4 5 6 6
16 15 14 14 13 11 9 10 11 11 10 11 11 10 8 8 7 5 4 5 7 5 8 8 8 9 6 6 3 5 6 6 7 6 5 3 2 2 3 3 3 3 4
16 15 14 12 12 12 11 9 10 13 12 11 10 10 10 10 10 7 6 4 4 4 4 4 4 5 5 3 3 5 5 5 5 5 5 4 4 3 4 3 3 3 4
15 12 11 10 9 8 9 10 12 15 16 16 17 14 10 9 7 8 10 10 8 9 3 3 3 7 8 6 5 5 5 7 6 6 5 5 4 4 6 4 4 4 4
14 14 11 10 8 8 8 8 10 10 16 16 14 13 12 12 8 9 9 4 6 6 1 2 3 5 5 5 5 5 5 7 7 7 7 5 5 6 5 5 4 4 3
14 19 11 10 9 9 9 10 10 10 11 11 11 13 14 13 13 12 9 5 6 4 4 4 4 5 4 5 5 5 5 6 7 8 7 6 7 8 6 5 5 4 3
12 10 10 10 10 11 9 10 9 10 11 11 9 11 13 16 17 17 14 10 10 8 7 7 4 4 5 4 4 5 6 5 5 6 6 7 7 5 5 5 5 5 4
11 19 16 10 9 9 9 9 9 10 11 10 9 9 8 9 10 11 10 11 11 11 9 9 6 4 5 5 5 5 4 4 5 4 4 4 4 4 4 5 4 4 4
8 8 11 9 8 9 8 9 9 9 9 9 10 9 12 10 9 9 9 12 13 12 10 9 7 6 6 4 3 4 4 4 4 4 4 3 4 4 4 5 4 4 4
8 7 7 7 7 8 8 8 7 8 9 9 8 8 14 10 8 8 9 9 10 11 10 9 8 7 7 5 4 4 5 4 3 2 1 2 3 4 4 4 4 4 5
7 6 6 5 6 7 6 6 5 5 5 7 7 6 7 8 8 7 8 8 9 10 10 10 9 9 6 3 2 5 5 4 3 2 2 3 4 4 5 5 5 6 3
9 10 9 9 9 8 8 8 8 8 8 6 4 4 5 7 7 7 6 7 8 8 10 9 10 12 7 4 2 2 4 3 3 4 5 4 6 8 5 5 5 5 4
10 11 11 10 9 9 9 10 10 10 9 9 6 4 4 4 4 5 6 6 6 8 9 8 5 8 9 9 8 7 6 5 3 3 3 6 10 9 5 3 5 5 8
11 11 10 9 10 9 10 9 10 10 10 9 8 7 4 3 3 3 4 4 4 4 5 4 5 8 9 7 7 5 4 5 5 7 4 6 5 4 5 8 11 8 9
Wind_Direction
91 97 22 323 314 359 343 317 311 312 316 319 324 337 310 241 229 212 220 206 199 178 136 160 247 270 252 223 155 170 129 164 186 286 227 262 245 249 304 289 270 246 246
64 65 349 352 339 323 311 321 335 328 326 310 315 333 334 337 243 219 213 208 214 222 178 186 221 231 234 227 157 157 154 206 157 195 213 314 222 236 239 287 285 253 234
1 19 4 331 297 269 277 282 296 299 302 313 329 330 333 346 277 240 225 210 200 191 185 201 193 198 226 217 191 135 144 184 124 118 218 232 260 296 1 337 330 345 313
301 275 258 274 285 286 277 278 273 277 285 293 293 311 319 312 358 322 266 238 239 207 201 209 208 209 181 184 170 171 151 149 114 121 181 77 4 309 67 286 333 1 319
265 274 273 265 261 268 278 267 263 270 276 281 279 292 301 321 18 351 24 284 239 227 216 194 196 174 173 175 154 162 142 123 117 116 108 61 265 354 261 247 327 301 294
271 271 265 269 265 265 263 254 246 250 253 250 247 256 272 290 220 318 327 2 319 204 191 183 157 160 161 157 153 153 155 150 169 152 164 199 234 215 203 290 339 315 320
244 257 266 300 307 306 302 307 293 267 252 244 242 251 258 257 273 328 28 20 290 314 189 174 159 161 148 157 158 158 162 171 169 173 163 210 220 203 153 298 250 237 251
234 234 226 236 255 272 289 292 296 308 303 274 244 235 246 257 229 236 212 209 285 293 298 210 172 161 181 166 172 185 196 198 183 187 185 223 227 210 164 206 230 251 272
243 239 235 230 246 253 262 274 283 290 290 310 280 246 235 258 248 205 204 252 259 257 256 163 62 337 193 184 167 195 214 231 195 196 197 220 238 227 185 76 296 313 299
263 259 253 239 234 240 246 262 276 282 281 281 293 265 242 250 221 220 190 216 261 253 227 219 201 216 273 317 199 183 195 223 188 166 190 246 236 246 221 191 212 240 246
319 308 292 270 259 266 267 258 261 267 275 271 263 274 279 238 248 226 198 214 231 226 219 206 190 201 268 284 257 212 216 168 191 179 157 181 229 265 277 243 214 192 206
295 290 285 280 276 275 263 258 263 268 267 272 271 263 260 264 242 262 237 207 220 231 236 225 204 183 194 268 265 247 219 174 164 156 146 205 230 254 263 261 253 224 216
290 286 287 283 274 262 260 259 263 255 256 263 256 257 255 241 245 238 259 238 213 230 234 246 217 198 212 226 225 234 215 196 167 156 180 212 201 227 263 277 277 276 247
285 283 282 279 276 266 258 258 256 253 252 255 255 257 254 256 243 230 219 242 256 210 233 242 206 227 204 173 176 191 201 203 193 189 190 201 206 224 250 230 259 278 261
284 281 276 269 267 264 254 254 256 253 247 253 252 254 253 250 254 236 181 111 73 24 302 229 202 186 198 203 180 193 182 192 186 169 179 189 210 228 254 239 253 247 227
292 289 284 274 263 251 255 261 247 250 255 250 248 245 259 259 189 147 129 128 107 67 45 353 257 220 217 199 188 190 175 185 194 189 184 179 209 226 248 253 227 228 247
292 293 293 292 285 275 263 261 270 258 249 247 242 246 234 245 251 193 166 106 62 49 1 303 287 265 199 192 199 180 179 188 179 188 197 190 208 226 216 238 247 238 255
284 279 275 274 269 264 255 249 251 254 259 252 242 238 237 222 220 232 204 203 264 212 234 249 275 300 255 186 183 174 188 183 185 195 200 190 210 224 226 227 225 226 253
285 278 275 271 264 260 258 251 246 252 253 257 250 237 236 243 237 225 207 235 242 240 216 227 223 267 286 214 191 195 197 199 196 192 195 197 211 194 217 214 215 215 234
276 269 265 269 269 265 261 257 251 243 245 245 242 231 220 217 227 225 220 222 218 221 215 215 214 238 270 243 199 199 190 186 192 178 180 179 202 189 213 213 203 229 216
278 272 263 264 264 263 259 255 252 246 244 239 240 225 207 214 218 207 208 210 219 214 212 210 212 223 267 243 189 169 185 162 165 170 181 206 203 203 195 215 211 214 223
281 269 271 275 273 268 266 262 254 245 245 242 235 219 189 205 208 211 203 201 207 206 203 204 208 219 246 225 198 149 126 99 84 116 178 229 234 229 229 214 204 215 218
346 332 326 337 354 351 349 350 348 352 302 237 219 192 174 191 196 217 197 185 192 192 187 194 202 216 210 193 133 151 140 149 184 213 235 251 260 240 221 221 210 217 192
2 5 359 2 7 5 5 360 358 356 356 3 31 143 157 168 177 207 179 177 183 192 185 192 198 198 167 176 157 126 136 163 204 237 248 243 260 260 228 212 195 157 120
7 11 12 11 9 8 5 7 6 2 4 10 35 73 109 142 167 165 165 174 186 196 178 188 169 170 171 188 191 182 172 149 205 262 282 267 254 231 205 158 132 109 138
14 15 12 11 12 9 15 11 8 5 7 8 12 19 37 92 127 145 152 161 173 166 160 169 184 176 181 202 215 201 235 234 238 237 245 260 240 184 147 151 136 137 150